User: anonymous   Login
Location: Newark
(21.0333°N, 105.8500°E)
Time: 20:28:42
(UTC+00:00)
Language:

Envisat - Orbit

View from above orbital plane
View from above orbital plane
View from above satellite
View from above satellite

Ground track
Ground track

The orbit data is extracted from the following two-line orbital elements,

1 27386U 02009A   20028.59757122 +.00000002 +00000-0 +13981-4 0  9995
2 27386 098.1399 043.0308 0001167 088.9282 019.5823 14.37969799938302
Epoch (UTC): 28 January 2020 14:20:30
Eccentricity: 0.0001167
inclination: 98.1399°
perigee height: 764 km
apogee height: 766 km
right ascension of ascending node: 43.0308°
argument of perigee: 88.9282°
revolutions per day: 14.37969799
mean anomaly at epoch: 19.5823°
orbit number at epoch: 93830

The dashed part of the orbit path shows where the satellite is in the earth's shadow,  

DLR